Regional Weather Roundup
Issued by NWS Cleveland, OH

Home | Current Version | Previous Version | Text Only | Print | Product List | Glossary Off
Versions: 1 2 3 4 5 6 7 8 9 10 11 12 13 14 15 16 17 18 19 20 21 22 23 24 25 26 27 28 29 30 31 32 33 34 35 36 37 38 39 40 41 42 43 44 45 46 47 48 49 50

000
ASUS41 KCLE 250110
RWRCLE
OHIO REGIONAL WEATHER ROUNDUP
NATIONAL WEATHER SERVICE CLEVELAND, OH
900 PM EDT THU JUL 24 2014

NOTE: "FAIR" INDICATES FEW OR NO CLOUDS BELOW 12,000 FEET WITH NO
SIGNIFICANT WEATHER AND/OR OBSTRUCTIONS TO VISIBILITY.

OHZ001>008-015>018-024>027-034-035-043-044-250200-
   NORTHWEST OHIO

CITY           SKY/WX    TMP DP  RH WIND       PRES   REMARKS
DEFIANCE       PTCLDY    69  54  58 CALM      30.07R
FINDLAY        CLEAR     67  51  56 E5        30.07R
TOLEDO EXPRESS MOCLDY    66  52  60 S5        30.07R
TOLEDO EXEC    CLEAR     67  52  58 E3        30.07R
LIMA           CLEAR     67  54  63 NE3       30.09R
$$

OHZ009>014-019>023-028>033-038-089-250200-
   NORTHEAST OHIO

CITY           SKY/WX    TMP DP  RH WIND       PRES   REMARKS
CLE-HOPKINS    CLEAR     65  50  58 N7        30.07R
CLE-LAKEFRONT  CLEAR     66  51  58 NE9       30.03R
CUY CO. ARPT   CLEAR     61  52  72 NE7       30.06R
LORAIN-ELYRIA  CLEAR     67  52  58 N5        30.07R
ASHTABULA      CLEAR     60  52  74 CALM      30.05R
AKRON-CANTON   CLEAR     61  49  64 N8        30.04R
WOOSTER        CLEAR     61  49  64 N7        30.06R
MANSFIELD      CLEAR     62  51  67 N5        30.07R
YOUNGSTOWN     CLEAR     63  50  62 N6        30.04R
$$

OHZ042-051>053-060>062-070>072-077>081-250200-
  SOUTHWEST OHIO

CITY           SKY/WX    TMP DP  RH WIND       PRES   REMARKS
CINC-COVINGTON PTCLDY    71  54  54 NW8       30.05R
CINC-LUNKEN    CLEAR     66  59  78 CALM      30.05R
HAMILTON       CLOUDY    71  55  56 N7        30.06R
DAYTON         PTCLDY    67  53  61 N6        30.08R
WRIGHT-PAT AFB CLEAR     69  53  58 N6        30.06R
DAYTON GENERAL CLEAR     68  53  58 N9        30.06R
WILMINGTON     CLEAR     67  54  63 N8        30.05R
$$

OHZ036-037-039>041-045>050-054>059-063>069-073>076-082>088-250200-
  CENTRAL AND SOUTHEAST OHIO

CITY           SKY/WX    TMP DP  RH WIND       PRES   REMARKS
COLUMBUS       MOCLDY    71  52  50 N8        30.03R
OSU AIRPORT    CLEAR     66  51  58 N9        30.05R
BOLTON FIELD   CLOUDY    68  54  60 NW8       30.05R
RICKENBACK AFB CLOUDY    73  49  43 N10       30.03R
NEWARK         CLEAR     67  53  61 N6        30.03R
MARION         CLEAR     65  51  60 N7        30.07R
LANCASTER      CLOUDY    69  56  62 N5        30.03R
ZANESVILLE     CLEAR     66  54  65 N5        30.02R
NEW PHILLY     CLEAR     65  53  65 CALM      30.02R
$$



USA.gov is the U.S. government's official web portal to all federal, state and local government web resources and services.